Regional Weather Roundup
Issued by NWS Grand Forks, ND

Home | Current Version | Previous Version | Text Only | Print | Product List | Glossary Off
Versions: 1 2 3 4 5 6 7 8 9 10 11 12 13 14 15 16 17 18 19 20 21 22 23 24 25 26 27 28 29 30 31 32 33 34 35 36 37 38 39 40 41 42 43 44 45 46 47 48 49 50

000
ASUS43 KFGF 271731
RWRFGF
PRAIRIE TO PINES  WEATHER ROUNDUP
NATIONAL WEATHER SERVICE EASTERN NORTH DAKOTA/GRAND FORKS ND
1200 PM CDT WED MAY 27 2015

 **SATELLITE DATA USED TO AUGMENT SKY COVER AT AUTOMATED STATIONS**
 *****  WEATHER ACROSS EASTERN NORTH DAKOTA  *****

CITY           SKY/WX    TMP DP  RH WIND       PRES   REMARKS
GRAND FORKS    MOSUNNY   66  48  52 N13G18    29.96R
GRAND FRKS AFB SUNNY     66  49  53 N9        29.98R
GRAND FRKS NWS   N/A     68 N/A N/A N5          N/A
DEVILS LAKE    SUNNY     66  48  52 NE7       29.98R
FARGO          SUNNY     74  55  51 N6        29.95R
WAHPETON ARPT  SUNNY     73  52  46 NW5       29.96S
$$

 ***** WEATHER ACROSS CENTRAL AND WESTERN NORTH DAKOTA  *****

CITY           SKY/WX    TMP DP  RH WIND       PRES   REMARKS
BISMARCK       SUNNY     77  50  38 S6        29.97S
MINOT          SUNNY     72  50  45 E8        29.96R
JAMESTOWN      SUNNY     77  48  35 CALM      29.96R
MINOT AFB      SUNNY     71  55  55 E6        29.96R
GARRISON         N/A     76  52  43 SE9       29.96R
WILLISTON      PTSUNNY   76  47  35 S8        29.92F
DICKINSON      MOSUNNY   76  50  40 S15G24    29.93F
HETTINGER      MOSUNNY   73  52  47 SE10      29.97S
$$

 *****  OTHER AIRPORT OBSERVATIONS IN OUR AREA  *****

CITY           SKY/WX    TMP DP  RH WIND       PRES   REMARKS
WALHALLA         N/A     63  45  51 MISG      30.01R
GRAFTON AIRPOR FAIR      63  46  55 N13G21    30.00R
VALLEY CITY AR FAIR      77  50  38 NE5       29.96S
CANDO          FAIR      66  46  48 E10       30.00S
CAVALIER APRT  FAIR      64  45  48 N16       29.99S
GWINNER        NOT AVBL
SHEYENNE NWR     N/A     76  56  49 N2        29.95S
ROLLA          FAIR      61  43  51 NE10      30.02S
 ***** THE ABOVE OBSERVATIONS ARE NON NWS ARE NOT QUALITY
       CONTROLLED AND MAY MIS-REPORT RAIN FOR SNOW...
$$

  *****  WEATHER ACROSS NORTHERN MINNESOTA  *****

CITY           SKY/WX    TMP DP  RH WIND       PRES   REMARKS
FLAG ISLAND    SUNNY     63  46  55 NW13      29.94R
WARROAD        SUNNY     66  52  59 NW8       29.95R
ROSEAU         SUNNY     70  50  49 NW5       29.96R
HALLOCK        SUNNY     66  46  48 N10       29.97R
THF RVR FALLS  SUNNY     70  50  49 NW7       29.96R
BAUDETTE       SUNNY     66  49  54 NW10      29.93R
WASKISH        SUNNY     66  57  72 SW10      29.93R
CROOKSTON      SUNNY     70  48  46 N8        29.96S
STEPHEN NDAWN    N/A     64  48  55 N13         N/A
GREENBUSH NDAW   N/A     66  50  55 NW9         N/A
$$
  *****  WEATHER ACROSS CENTRAL AND WEST MINNESOTA  *****

CITY           SKY/WX    TMP DP  RH WIND       PRES   REMARKS
FOSSTON        SUNNY     73  52  46 NW5       29.95S
BEMIDJI        MOSUNNY   75  48  38 NW9       29.94R
PARK RAPIDS    SUNNY     78  47  33 N9        29.93R
ELBOW LAKE     FAIR      72  57  58 NW7       29.96S
WADENA         SUNNY     75  55  50 NW6       29.94R
DETROIT LAKES  SUNNY     73  52  46 N3        29.96S
MOORHEAD       SUNNY     73  52  46 CALM      29.95S
FERGUS FALLS   SUNNY     73  55  53 N7        29.95S
MORRIS MN      SUNNY     79  55  44 NW8       29.95S
STAPLES        SUNNY     77  52  41 W3        29.93R
$$
  *****  WEATHER ELSEWHERE ACROSS MINNESOTA  *****

CITY           SKY/WX    TMP DP  RH WIND       PRES   REMARKS
DULUTH         SUNNY     77  54  44 W10       29.87R
INTRNTL FALLS  SUNNY     74  51  44 N9        29.88R
ELY            NOT AVBL
CLOQUET        SUNNY     79  54  41 W9        29.88S
WHEATON        SUNNY     75  55  50 NW6       29.97S
BRAINERD       SUNNY     74  54  49 N6        29.92R
HIBBING        SUNNY     78  45  30 NW8       29.87R
ALEXANDRIA     SUNNY     75  55  49 W9        29.97R
SAINT CLOUD    SUNNY     75  58  55 W8        29.93R
MINNEAPOLIS    SUNNY     75  57  53 W9        29.94R
$$

  *****  WEATHER ACROSS SOUTH DAKOTA  *****

CITY           SKY/WX    TMP DP  RH WIND       PRES   REMARKS
SIOUX FALLS    MOSUNNY   79  53  40 NW7       30.02R
BROOKINGS      SUNNY     77  48  36 NW12      30.02S
WATERTOWN      SUNNY     77  49  37 NW10      30.01R
HURON          SUNNY     78  52  40 N3        30.01R
SISSETON         N/A     79  49  34 VRB7      29.96R
ABERDEEN       SUNNY     81  51  35 N7        29.98R
MITCHELL       SUNNY     79  54  41 SW8       30.03R
PIERRE         SUNNY     78  49  35 SW14G22   29.99S
MOBRIDGE       MOSUNNY   77  51  40 S7        29.97S
RAPID CITY     PTSUNNY   69  55  60 S14       29.99F
$$

  *****  SOME WEATHER IN NEARBY STATES *****

CITY           SKY/WX    TMP DP  RH WIND       PRES   REMARKS
GLASGOW MT     PTSUNNY   66  53  63 E12       29.94F
GREAT FALLS MT LGT RAIN  52  50  93 SW9       30.03S
CHEYENNE WY    LGT RAIN  59  41  51 W15G22    30.11R
SCOTTSBLUFF NE MOSUNNY   65  54  67 SE8       30.04S
OMAHA NE       MOSUNNY   77  56  48 CALM      30.06S
DES MOINES IA  SUNNY     76  53  44 CALM      30.05R
DAVENPORT IA   MOSUNNY   70  58  65 NW13      30.04R
CHICAGO IL     PTSUNNY   70  58  65 NW15G25   29.97S
EAU CLAIRE WI  SUNNY     71  57  61 SW10G20   29.94R
LA CROSSE WI   SUNNY     72  59  63 S9        29.97R
$$

  *****  SOME NATIONAL WEATHER *****

CITY           SKY/WX    TMP DP  RH WIND       PRES   REMARKS
LA GUARDIA NY  MOSUNNY   79  64  60 S12       30.16F
RALEIGH NC     PTSUNNY   84  68  58 W10       30.25S
ATLANTA GA     PTSUNNY   77  66  68 W3        30.26S
NEW ORLEANS LA TSTM      70  63  78 NW24G39   30.21R
OKLAHOMA CITY  CLOUDY    77  63  61 VRB6      30.09S
ALBUQUERQUE NM PTSUNNY   70  40  33 SW5       30.17F
SALT LAKE CITY CLOUDY    59  51  75 N9        30.09F
LOS ANGELES CA CLOUDY    60  54  80 SW6       30.01F
BOISE ID       MOSUNNY   65  48  54 SW5       30.01F
SEATTLE WA     PTSUNNY   61  53  75 W3        30.08F
$$

*** WEATHER ACROSS MANITOBA...SASKATCHEWAN AND ONTARIO ***
                ***ONTARIO***

CITY           SKY/WX    TMP DP  RH WIND       PRES   REMARKS
GERALDTON      PTSUNNY   57  45  62 N9        29.82R
THUNDER BAY    CLOUDY    79  48  34 W12G20    29.75S
SIOUX LOOKOUT  PTSUNNY   61  43  51 N9G17     29.92R
TORONTO        PTSUNNY   82  61  47 SW20G28   29.96F
BIG TROUT LK   SUNNY     45  18  33 NW12G18   30.05S
PICKLE LAKE    PTSUNNY   48  36  61 N8G22     29.98R
DRYDEN         SUNNY     63  45  51 NE9G17    29.92R
KENORA         MOSUNNY   63  46  55 N6G17     29.95R
$$
                *** MANITOBA***

CITY           SKY/WX    TMP DP  RH WIND       PRES   REMARKS
BRANDON        CLOUDY    59  41  51 NE12G21   30.05S
DAUPHIN        SUNNY     54  37  54 E12G18    30.09R
ISLAND LAKE    SUNNY     48  19  32 NE3G17    30.13R
PILOT MOUND      N/A     59  45  58 NE9         N/A
THE PAS        MOSUNNY   52 N/A N/A MISG      30.12F
THOMPSON       MOSUNNY   54  23  30 N9        30.10F
WINNIPEG       PTSUNNY   59  45  58 NE14G23   30.03R
LYNN LAKE      MOSUNNY   50  23  34 SE3       30.09F
CHURCHILL      PTSUNNY   32  23  69 N9        30.17R WCI  24
GILLAM         PTSUNNY   43  23  45 N9        30.12S
$$
                ***SASKATCHEWAN***

CITY           SKY/WX    TMP DP  RH WIND       PRES   REMARKS
ESTEVAN        CLOUDY    64  46  52 E16       29.97S
KINDERSLEY     MOSUNNY   63  48  59 SE10      29.99F
LLOYDMINSTER   MOSUNNY   64  45  48 SE8       30.00F
PRINCE ALBERT  PTSUNNY   57  37  47 E13       30.07S
REGINA         PTSUNNY   64  48  55 E14G20    29.99F
YORKTON        MOSUNNY   55  43  62 E6        30.05S
N. BATTLEFORD  SUNNY     63  39  42 SE8       30.05S
LA RONGE       MOSUNNY   57  34  41 SE13      30.06F
SASKATOON      MOSUNNY   57  39  51 E7        30.05S
SWIFT CURRENT  SUNNY     68  48  49 E17G26    29.96F
$$
NOTE: THESE ARE AUTOMATED STATIONS WITH LIMITED QUALITY CONTROL
      "FAIR" INDICATES FEW OR NO CLOUDS BELOW 12,000 FEET WITH NO
      SIGNIFICANT WEATHER AND/OR OBSTRUCTIONS TO VISIBILITY.
      SKY/WX - SKY CONDITION AND SIGNIFICANT WEATHER.
      TMP - AIR TEMPERATURE.    DP   - DEWPOINT TEMPERATURE.
      RH  - RELATIVE HUMIDITY.  PRES - PRESSURE.
      HX  - HEAT INDEX.         WCI  - WIND CHILL INDEX.
$


USA.gov is the U.S. government's official web portal to all federal, state and local government web resources and services.